User: anonymous   Login
Location: Trois-Rivi�res
(46.3500°N, 72.5500°W)
Time: 10:53:25
(UTC-05:00)
Language:

Envisat - Orbit

View from above orbital plane
View from above orbital plane
View from above satellite
View from above satellite

Ground track
Ground track

The orbit data is extracted from the following two-line orbital elements,

1 27386U 02009A   17345.76134263 -.00000004  00000-0  12337-4 0  9994
2 27386  98.2096  23.4165 0001510  84.7292 275.4053 14.37910678826594
Epoch (UTC): 11 December 2017 18:16:20
Eccentricity: 0.0001510
inclination: 98.2096°
perigee height: 764 km
apogee height: 766 km
right ascension of ascending node: 23.4165°
argument of perigee: 84.7292°
revolutions per day: 14.37910678
mean anomaly at epoch: 275.4053°
orbit number at epoch: 82659

The dashed part of the orbit path shows where the satellite is in the earth's shadow,  

DLR